Simultaneous Nadir Overpasses (SNOs) Predictions

Prediction of SNOs between NPP and TERRA Satellite Orbit:

Table of predicted SNOs for the next 14.0 days since TLE Epoch: 10/25/2015
Index Date (NPP) Time (NPP) Lat,Lon (NPP) SZA (NPP ) Date (TERRA) Time (TERRA) Lat,Lon (TERRA) SZA (TERRA ) Distance(km) Time Diff (sec)
1 10/26/2015 01:17:33 68.69, 159.63 80.87 10/26/2015 01:18:22 68.69, 159.59 80.88 1.86 49
2 10/26/2015 02:08:14 -68.61, -32.95 99.20 10/26/2015 02:07:51 -68.58, -32.91 99.22 2.79 23
3 10/26/2015 02:58:41 67.56, 135.67 79.80 10/26/2015 02:57:34 67.58, 133.55 79.77 90.12 67
4 10/28/2015 17:34:25 68.68, -84.59 81.77 10/28/2015 17:34:51 68.70, -84.53 81.79 3.24 26
5 10/28/2015 18:25:06 -68.54, 82.91 98.36 10/28/2015 18:24:22 -68.54, 82.90 98.37 0.50 44
6 10/31/2015 09:00:40 -69.11,-136.71 96.94 10/31/2015 09:01:51 -68.96,-135.97 97.07 33.51 71
7 10/31/2015 09:51:17 68.62, 31.26 82.60 10/31/2015 09:51:22 68.63, 31.25 82.60 1.00 5
8 10/31/2015 10:41:59 -68.53,-161.31 97.49 10/31/2015 10:40:52 -68.52,-161.24 97.50 2.72 67
9 11/03/2015 01:17:26 -68.73, -20.43 96.46 11/03/2015 01:18:25 -68.71, -20.41 96.47 2.08 59
10 11/03/2015 02:08:09 68.56, 147.10 83.40 11/03/2015 02:07:52 68.59, 147.09 83.42 3.22 17
11 11/03/2015 02:58:41 -67.93, -44.78 97.21 11/03/2015 02:57:31 -67.99, -46.00 97.19 51.47 70
12 11/05/2015 17:34:18 -68.67, 95.41 95.68 11/05/2015 17:34:55 -68.66, 95.40 95.70 1.67 37
13 11/05/2015 18:25:00 68.51, -97.07
